Meteo pe oră la Bolshoe Ogarevo

Astăzi, 9 Mai, Duminică

Timp Temperatura Precipitaţii Vânt Presiune Umiditate
00:00 +8°C° 0 mm 3 m/s 733 mmHg 94%
01:00 +7°C° 0.2 mm 3 m/s 733 mmHg 95%
02:00 +7°C° 0.2 mm 3 m/s 733 mmHg 95%
03:00 +7°C° 0 mm 3 m/s 734 mmHg 95%
04:00 +5°C° 0.4 mm 4 m/s 734 mmHg 95%
05:00 +3°C° 0.4 mm 5 m/s 735 mmHg 96%
06:00 +3°C° 0.4 mm 6 m/s 735 mmHg 96%
07:00 +2°C° 0.2 mm 7 m/s 736 mmHg 96%
08:00 +2°C° 0.2 mm 7 m/s 737 mmHg 96%
09:00 +2°C° 0 mm 7 m/s 738 mmHg 95%
10:00 +2°C° 0.1 mm 7 m/s 738 mmHg 95%
11:00 +2°C° 0.1 mm 7 m/s 739 mmHg 95%
12:00 +2°C° 0.1 mm 7 m/s 740 mmHg 95%
13:00 +2°C° 0.2 mm 8 m/s 740 mmHg 90%
14:00 +4°C° 0.2 mm 8 m/s 741 mmHg 85%
15:00 +4°C° 0.2 mm 8 m/s 742 mmHg 80%
16:00 +5°C° 0.1 mm 7 m/s 742 mmHg 77%
17:00 +5°C° 0.1 mm 7 m/s 742 mmHg 75%
18:00 +5°C° 0.1 mm 6 m/s 743 mmHg 72%
19:00 +5°C° 0 mm 5 m/s 743 mmHg 75%
20:00 +5°C° 0 mm 5 m/s 744 mmHg 79%
21:00 +4°C° 0 mm 4 m/s 744 mmHg 82%
22:00 +4°C° 0 mm 4 m/s 745 mmHg 82%
23:00 +3°C° 0 mm 4 m/s 745 mmHg 83%

Mâine, 10 Mai, Luni

Timp Temperatura Precipitaţii Vânt Presiune Umiditate
00:00 +3°C° 0 mm 4 m/s 746 mmHg 84%
01:00 +1°C° 0 mm 4 m/s 746 mmHg 84%
02:00 +1°C° 0 mm 4 m/s 746 mmHg 84%
03:00 +1°C° 0 mm 4 m/s 747 mmHg 84%
04:00 +1°C° 0 mm 4 m/s 747 mmHg 83%
05:00 +1°C° 0 mm 4 m/s 748 mmHg 81%
06:00 +1°C° 0 mm 5 m/s 748 mmHg 80%
07:00 +3°C° 0 mm 5 m/s 748 mmHg 73%
08:00 +5°C° 0 mm 6 m/s 749 mmHg 67%
09:00 +6°C° 0 mm 7 m/s 749 mmHg 60%
10:00 +8°C° 0 mm 7 m/s 749 mmHg 56%
11:00 +9°C° 0 mm 7 m/s 749 mmHg 52%
12:00 +10°C° 0 mm 8 m/s 749 mmHg 49%
13:00 +10°C° 0 mm 8 m/s 749 mmHg 49%
14:00 +11°C° 0 mm 8 m/s 749 mmHg 50%
15:00 +11°C° 0 mm 8 m/s 749 mmHg 50%
16:00 +11°C° 0 mm 8 m/s 749 mmHg 54%
17:00 +10°C° 0 mm 7 m/s 748 mmHg 57%
18:00 +10°C° 0 mm 7 m/s 748 mmHg 60%
19:00 +9°C° 0 mm 7 m/s 748 mmHg 62%
20:00 +9°C° 0 mm 7 m/s 749 mmHg 63%
21:00 +8°C° 0 mm 7 m/s 749 mmHg 64%
22:00 +8°C° 0 mm 7 m/s 748 mmHg 66%
23:00 +6°C° 0 mm 7 m/s 748 mmHg 69%

Poimâine, 11 Mai, Marţi

Timp Temperatura Precipitaţii Vânt Presiune Umiditate
00:00 +6°C° 0 mm 7 m/s 748 mmHg 71%
01:00 +6°C° 0 mm 7 m/s 748 mmHg 73%
02:00 +5°C° 0 mm 7 m/s 748 mmHg 76%
03:00 +5°C° 0 mm 7 m/s 748 mmHg 78%
04:00 +5°C° 0 mm 7 m/s 748 mmHg 80%
05:00 +6°C° 0 mm 7 m/s 748 mmHg 82%
06:00 +6°C° 0 mm 7 m/s 748 mmHg 84%
07:00 +8°C° 0 mm 7 m/s 748 mmHg 82%
08:00 +9°C° 0 mm 7 m/s 748 mmHg 81%
09:00 +10°C° 0 mm 7 m/s 748 mmHg 80%
10:00 +12°C° 0 mm 8 m/s 748 mmHg 77%
11:00 +15°C° 0 mm 8 m/s 748 mmHg 74%
12:00 +16°C° 0 mm 8 m/s 748 mmHg 71%
13:00 +16°C° 0.1 mm 7 m/s 748 mmHg 74%
14:00 +15°C° 0.1 mm 6 m/s 748 mmHg 78%
15:00 +15°C° 0.1 mm 6 m/s 748 mmHg 82%
16:00 +14°C° 0 mm 5 m/s 748 mmHg 82%
17:00 +14°C° 0 mm 5 m/s 749 mmHg 82%
18:00 +13°C° 0 mm 4 m/s 749 mmHg 83%
19:00 +12°C° 0 mm 4 m/s 749 mmHg 85%
20:00 +11°C° 0 mm 3 m/s 749 mmHg 88%
21:00 +10°C° 0 mm 3 m/s 749 mmHg 90%
22:00 +10°C° 0 mm 2 m/s 749 mmHg 89%
23:00 +9°C° 0 mm 2 m/s 749 mmHg 87%

12 Mai, Miercuri

Timp Temperatura Precipitaţii Vânt Presiune Umiditate
00:00 +9°C° 0 mm 2 m/s 749 mmHg 86%
01:00 +9°C° 0.4 mm 2 m/s 749 mmHg 87%
02:00 +8°C° 0.4 mm 2 m/s 749 mmHg 89%
03:00 +8°C° 0.4 mm 2 m/s 749 mmHg 90%
04:00 +8°C° 0.7 mm 2 m/s 749 mmHg 91%
05:00 +9°C° 0.7 mm 1 m/s 748 mmHg 92%
06:00 +9°C° 0.7 mm 1 m/s 748 mmHg 93%
07:00 +9°C° 0 mm 2 m/s 748 mmHg 88%
08:00 +10°C° 0 mm 3 m/s 748 mmHg 84%
09:00 +11°C° 0 mm 3 m/s 748 mmHg 79%
10:00 +12°C° 0 mm 4 m/s 748 mmHg 74%
11:00 +13°C° 0 mm 4 m/s 748 mmHg 69%
12:00 +14°C° 0 mm 5 m/s 747 mmHg 64%
13:00 +14°C° 0 mm 5 m/s 747 mmHg 69%
14:00 +13°C° 0 mm 6 m/s 747 mmHg 74%
15:00 +13°C° 0 mm 6 m/s 747 mmHg 79%
16:00 +13°C° 0.1 mm 5 m/s 746 mmHg 80%
17:00 +13°C° 0.1 mm 5 m/s 746 mmHg 82%
18:00 +13°C° 0.1 mm 4 m/s 746 mmHg 83%
19:00 +12°C° 0 mm 4 m/s 746 mmHg 86%
20:00 +11°C° 0 mm 4 m/s 745 mmHg 88%
21:00 +11°C° 0 mm 3 m/s 745 mmHg 91%
22:00 +10°C° 0 mm 3 m/s 745 mmHg 93%
23:00 +10°C° 0 mm 4 m/s 745 mmHg 94%

13 Mai, Joi

Timp Temperatura Precipitaţii Vânt Presiune Umiditate
00:00 +10°C° 0 mm 4 m/s 745 mmHg 96%
01:00 +8°C° 0 mm 4 m/s 745 mmHg 95%
02:00 +8°C° 0 mm 4 m/s 745 mmHg 94%
03:00 +8°C° 0 mm 4 m/s 745 mmHg 94%
04:00 +9°C° 0 mm 3 m/s 745 mmHg 93%
05:00 +10°C° 0 mm 3 m/s 745 mmHg 93%
06:00 +10°C° 0 mm 3 m/s 745 mmHg 92%
07:00 +11°C° 0 mm 3 m/s 745 mmHg 86%
08:00 +13°C° 0 mm 4 m/s 745 mmHg 79%
09:00 +15°C° 0 mm 4 m/s 745 mmHg 72%
10:00 +17°C° 0 mm 4 m/s 745 mmHg 68%
11:00 +18°C° 0 mm 4 m/s 745 mmHg 63%
12:00 +19°C° 0 mm 4 m/s 745 mmHg 59%
13:00 +20°C° 0 mm 4 m/s 745 mmHg 58%
14:00 +20°C° 0 mm 4 m/s 745 mmHg 56%
15:00 +21°C° 0 mm 4 m/s 745 mmHg 54%
16:00 +20°C° 0 mm 4 m/s 744 mmHg 58%
17:00 +20°C° 0 mm 3 m/s 744 mmHg 62%
18:00 +20°C° 0 mm 3 m/s 744 mmHg 65%
19:00 +18°C° 0 mm 3 m/s 744 mmHg 71%
20:00 +17°C° 0 mm 3 m/s 744 mmHg 76%
21:00 +16°C° 0 mm 3 m/s 744 mmHg 81%
22:00 +14°C° 0 mm 3 m/s 743 mmHg 84%
23:00 +14°C° 0 mm 3 m/s 743 mmHg 88%

14 Mai, Vineri

Timp Temperatura Precipitaţii Vânt Presiune Umiditate
00:00 +14°C° 0 mm 3 m/s 743 mmHg 91%
01:00 +13°C° 0 mm 3 m/s 743 mmHg 92%
02:00 +13°C° 0 mm 3 m/s 743 mmHg 92%
03:00 +13°C° 0 mm 3 m/s 743 mmHg 93%
04:00 +13°C° 0 mm 3 m/s 743 mmHg 92%
05:00 +13°C° 0 mm 3 m/s 743 mmHg 92%
06:00 +13°C° 0 mm 4 m/s 743 mmHg 91%
07:00 +15°C° 0 mm 4 m/s 743 mmHg 85%
08:00 +16°C° 0 mm 5 m/s 742 mmHg 79%
09:00 +19°C° 0 mm 6 m/s 742 mmHg 74%
10:00 +20°C° 0 mm 6 m/s 742 mmHg 70%
11:00 +21°C° 0 mm 7 m/s 742 mmHg 67%
12:00 +22°C° 0 mm 7 m/s 742 mmHg 64%
13:00 +23°C° 0 mm 7 m/s 742 mmHg 63%
14:00 +24°C° 0 mm 7 m/s 742 mmHg 63%
15:00 +26°C° 0 mm 7 m/s 742 mmHg 62%
16:00 +24°C° 0 mm 6 m/s 741 mmHg 65%
17:00 +23°C° 0 mm 6 m/s 741 mmHg 67%
18:00 +22°C° 0 mm 6 m/s 741 mmHg 69%
19:00 +21°C° 0 mm 5 m/s 741 mmHg 74%
20:00 +20°C° 0 mm 4 m/s 741 mmHg 79%
21:00 +18°C° 0 mm 3 m/s 741 mmHg 83%
22:00 +18°C° 0 mm 3 m/s 740 mmHg 85%
23:00 +18°C° 0 mm 3 m/s 740 mmHg 87%
Arată mai mult

Formular de consimțământ

Meteoprog și furnizorii noștri de servicii pot stoca și accesa date personale, precum cookies, identificatori de dispozitiv sau alte tehnologii similare pe dispozitivul dumneavoastră și procesa astfel de date pentru a personaliza conținutul și reclamele, dar și pentru a oferi caracteristici de social media și pentru a analiza traficul.

  • Stocarea și/sau accesarea informațiilor pe dispozitivul dumneavoastră

    Cookies, identificatori de dispozitiv sau alte informații pot fi stocate sau accesate pe dispozitiv în scopurile indicate mai sus.

  • Reclame și conținut personalizat, evaluarea reclamelor și a conținutului, informații despre audiențe și dezvoltarea produselor

    Reclamele și conținutul pot fi personalizate pe baza unui profil. Pot fi adăugate date suplimentare pentru a personaliza mai bine reclamele și conținutul. Performanța reclamelor și conținutului poate fi măsurată. Pot fi obținute informații despre utilizatorii care au văzut reclamele și conținutul. Aceste date pot fi utilizate pentru a dezvolta sau îmbunătăți experiența utilizatorilor, sistemele și software-ul.

Dând clic pe ‘Sunt de acord’, permiteți utilizarea cookie-urilor menționate, a identificatorilor de dispozitiv, balizelor web sau altor tehnologii similare. Setările pot fi modificate din browser-ul dispozitivului dumneavoastră.

În anumite scopuri, interesele legitime pot prima asupra consimțământului. Puteți citi mai multe informații în acest sens în Politica privind Confidențialitatea Datelor și Cookie.